Location: Warszawa
(52.2500°N, 21.0000°E)
Time: 20:21:02
(UTC+02:00)

AO-91 - Pass Details

Date: 24 April 2024
Orbit: 441 x 737 km, 97.6° (Epoch: 20 May)

Event Time Altitude Azimuth Distance (km) Brightness Sun altitude
Rises 22:29:10 0° 14° (NNE) 2,450 ? -19.2°
Reaches altitude 10° 22:31:11 10° 14° (NNE) 1,572 ? -19.3°
Maximum altitude 22:34:31 89° 95° (E) 454 ? -19.6°
Enters shadow 22:34:51 71° 192° (SSW) 479 ? -19.6°
